Wind_Speed
55 56 56 57 58 59 61 62 63 63 64 65 67 69 70 70 70 70 70 69 69 69 69 68 67 67 66 66 66 65 65 64 64 64 65 65 65 65
58 58 58 59 60 60 61 62 63 63 63 64 65 66 66 66 67 67 66 66 65 65 64 63 63 63 63 63 63 62 61 61 61 61 61 62 62 63
59 59 59 59 59 60 60 61 61 61 61 60 61 62 63 63 64 63 63 61 60 60 59 59 58 57 57 56 56 56 56 56 55 55 55 55 56 57
60 59 59 58 58 58 57 58 58 58 58 57 58 60 60 60 59 57 57 56 54 53 52 51 50 49 49 48 48 47 47 47 47 47 48 48 48 49
59 58 57 56 55 55 55 55 55 55 56 56 56 56 54 53 52 52 50 49 48 48 47 45 44 43 42 42 41 41 40 41 41 42 43 43 44 44
56 55 54 53 52 52 52 52 53 53 53 53 51 49 48 47 46 46 44 44 43 42 41 39 37 36 36 36 37 37 37 37 38 38 39 40 40 41
53 52 51 50 49 49 49 49 50 50 49 47 45 43 41 41 40 40 38 37 36 36 35 34 34 34 33 33 33 33 33 34 35 35 36 36 37 38
50 49 48 47 47 47 47 47 46 45 43 40 37 37 36 35 34 33 33 32 31 32 32 31 32 31 31 31 31 31 31 31 32 33 33 34 35 35
47 47 46 46 45 44 43 42 40 38 35 33 32 31 29 28 28 29 30 30 30 30 29 28 29 29 30 30 29 29 29 29 29 29 30 31 32 33
45 44 43 42 41 39 38 35 33 31 29 28 26 25 24 25 27 28 28 29 29 30 28 27 26 27 27 27 26 25 25 25 25 25 26 27 28 29
41 39 38 37 35 32 29 27 25 25 24 22 20 21 22 24 25 26 27 27 27 27 27 26 25 24 25 24 23 21 20 21 21 21 22 23 24 25
34 32 30 28 26 23 21 19 19 18 18 18 18 20 21 23 24 25 25 25 25 24 24 23 23 22 21 21 20 18 17 17 17 17 18 19 20 21
25 23 20 18 16 15 14 13 13 14 14 16 17 18 20 22 24 24 25 25 24 23 22 21 20 19 17 16 16 14 13 13 14 14 14 14 15 17
16 13 11 10 9 9 9 9 10 11 13 14 16 17 19 21 22 23 23 23 23 22 21 20 18 17 16 14 14 13 11 11 10 10 10 11 12 13
8 6 5 4 4 5 6 8 9 11 12 14 15 17 18 20 21 21 22 22 22 22 21 20 19 17 16 14 13 11 10 9 8 7 7 7 7 8
2 2 2 3 4 4 6 8 10 11 12 14 15 17 18 20 20 21 21 21 21 21 21 20 19 18 17 15 14 12 10 8 6 5 4 4 3 4
4 4 4 5 6 7 8 10 11 12 13 15 16 17 19 19 20 20 21 21 21 21 21 20 19 19 19 18 16 15 13 10 7 4 3 1 0 1
7 7 8 9 9 10 10 11 11 13 14 15 17 18 19 19 19 20 20 21 21 21 21 21 21 21 21 20 18 16 14 12 10 8 6 4 4 4
9 10 11 11 12 12 12 12 13 14 15 16 18 19 19 20 20 20 20 21 21 22 22 22 22 23 23 22 20 18 16 14 13 11 10 9 9 8
12 12 13 13 13 14 14 14 14 15 15 17 18 19 20 20 20 20 20 21 21 22 22 22 22 23 23 22 22 20 19 17 16 15 14 14 13 12
13 13 14 14 14 14 14 15 15 16 16 17 18 19 19 20 20 20 20 20 21 21 21 22 22 23 23 23 22 22 21 20 19 18 17 17 17 16
14 14 14 15 14 14 15 15 15 16 17 18 19 19 20 20 21 21 21 20 20 20 21 21 22 22 22 22 22 22 22 21 21 20 20 19 19 19
14 14 14 14 13 13 14 14 15 15 16 17 19 19 20 20 20 20 20 20 20 20 20 20 21 22 22 22 22 23 23 22 22 21 21 21 20 20
Wind_Direction
296 295 293 292 291 290 288 287 287 286 286 286 285 285 286 286 286 286 286 286 286 285 284 283 281 280 279 277 276 274 273 271 268 266 264 262 260 258
294 293 292 291 290 289 288 288 287 287 286 286 286 286 287 287 287 288 287 287 287 286 285 285 283 282 280 278 276 274 272 270 268 266 264 262 260 258
294 293 292 290 290 289 288 288 288 288 288 288 288 288 288 288 288 288 288 288 287 287 286 285 285 283 282 279 277 274 272 270 268 266 264 261 259 257
293 292 292 291 290 290 289 289 289 289 289 289 289 289 289 289 289 289 289 289 288 288 287 287 285 284 282 280 278 275 273 270 267 265 262 260 258 256
293 293 293 292 292 291 291 290 291 291 291 291 291 291 291 290 290 290 290 291 291 291 290 289 287 284 282 281 278 276 273 271 268 266 263 260 257 255
294 293 293 293 293 292 292 292 292 292 293 293 293 293 293 292 292 293 293 294 294 293 293 292 290 287 284 281 279 277 275 272 269 266 263 260 257 255
294 293 293 293 293 293 293 293 294 294 295 295 296 295 295 295 296 297 298 298 297 296 295 295 293 291 288 285 282 279 277 274 270 267 263 261 258 256
293 293 293 293 293 294 294 294 295 296 297 298 298 298 298 299 301 303 304 304 302 300 300 298 296 294 291 288 285 282 278 276 272 267 263 261 260 257
293 293 293 293 294 294 295 296 297 297 298 300 300 301 302 304 306 308 309 310 310 308 306 303 300 298 295 292 289 284 281 277 273 267 264 262 260 257
292 292 293 293 294 294 295 296 298 299 302 304 305 307 309 311 313 314 314 315 314 312 310 308 305 303 301 298 293 287 281 277 273 270 265 262 260 256
292 292 292 292 293 294 295 297 300 302 306 309 311 314 317 318 319 320 320 320 319 317 315 313 310 308 306 302 297 291 284 279 275 271 267 263 260 257
293 292 292 291 292 293 296 299 303 308 312 316 320 321 323 325 328 328 328 327 327 325 321 319 317 315 312 307 303 296 288 281 277 274 269 265 261 258
293 292 291 290 291 295 300 305 312 318 322 325 327 330 333 334 336 337 337 337 337 335 333 331 328 325 324 319 314 307 297 288 281 278 273 267 262 258
294 292 290 291 295 302 311 319 327 332 336 338 340 342 343 343 344 345 346 347 347 346 346 345 344 341 338 334 328 320 311 302 292 283 276 271 266 260
298 296 299 309 321 331 339 343 348 352 354 355 355 354 353 353 355 356 357 357 358 359 359 358 357 355 352 349 343 337 328 317 306 295 285 280 274 259
344 6 14 17 20 17 13 12 11 10 9 7 6 4 4 4 5 5 5 5 6 7 7 8 8 8 6 4 2 358 351 343 330 317 303 294 277 252
61 59 60 59 51 42 36 29 25 23 19 16 14 11 10 11 11 12 13 14 15 15 15 16 17 17 17 16 14 11 11 12 13 15 14 357 252 208
70 71 71 68 61 56 49 43 36 30 24 21 19 17 17 17 18 19 20 21 21 21 22 23 25 24 24 23 22 23 25 30 36 47 57 67 91 107
79 78 76 73 68 63 58 50 42 36 32 30 28 26 25 25 26 25 25 25 25 26 27 28 28 28 28 30 31 33 36 42 48 56 65 73 84 91
84 82 78 75 72 68 62 54 47 42 39 35 32 30 29 29 28 27 27 28 29 29 30 31 31 33 35 37 38 40 45 50 56 63 70 75 82 88
85 83 80 77 75 71 65 59 52 47 44 40 35 32 30 29 29 29 28 29 30 30 31 33 34 36 39 41 43 45 52 57 59 65 72 78 84 88
85 83 81 79 76 72 67 61 55 50 46 42 37 33 30 29 27 28 29 29 29 31 33 35 37 39 42 44 47 50 55 59 62 69 75 80 85 90
84 82 80 79 76 71 66 61 55 49 44 41 36 31 28 26 25 25 26 27 29 31 34 37 39 42 45 47 50 54 58 63 67 74 77 80 85 90
Height
5753 5749 5744 5739 5734 5729 5724 5719 5716 5712 5708 5701 5694 5688 5683 5677 5671 5667 5662 5657 5652 5647 5643 5639 5636 5632 5629 5626 5624 5622 5621 5621 5622 5623 5625 5628 5631 5635
5738 5733 5728 5723 5718 5713 5708 5702 5697 5693 5691 5685 5677 5671 5665 5660 5654 5649 5644 5639 5634 5629 5624 5620 5616 5612 5609 5606 5603 5602 5601 5601 5601 5602 5604 5606 5610 5613
5722 5717 5713 5707 5702 5697 5691 5686 5680 5675 5672 5668 5661 5654 5649 5643 5637 5631 5626 5621 5617 5612 5607 5602 5597 5593 5590 5587 5584 5583 5582 5582 5582 5583 5585 5587 5590 5594
5707 5702 5697 5692 5686 5681 5676 5670 5665 5659 5655 5652 5646 5639 5633 5627 5621 5615 5610 5605 5601 5596 5591 5586 5582 5578 5574 5571 5568 5566 5566 5565 5565 5566 5568 5571 5573 5576
5691 5686 5681 5676 5671 5666 5661 5656 5651 5645 5640 5635 5630 5624 5618 5612 5606 5601 5596 5591 5586 5581 5577 5573 5568 5564 5561 5558 5555 5553 5552 5552 5552 5552 5553 5555 5558 5561
5675 5671 5666 5662 5657 5652 5647 5642 5637 5632 5626 5621 5615 5610 5604 5598 5593 5588 5584 5578 5573 5568 5564 5560 5556 5552 5549 5546 5544 5542 5541 5540 5539 5540 5541 5542 5545 5548
5661 5656 5652 5648 5644 5639 5634 5629 5624 5618 5613 5608 5603 5598 5592 5587 5582 5577 5572 5568 5563 5558 5554 5550 5545 5542 5539 5536 5533 5531 5530 5528 5528 5528 5529 5531 5533 5535
5647 5643 5639 5635 5631 5626 5621 5616 5611 5606 5602 5597 5592 5587 5583 5578 5573 5568 5563 5559 5555 5550 5545 5541 5536 5532 5529 5526 5523 5521 5519 5518 5517 5517 5518 5520 5522 5524
5634 5630 5626 5622 5619 5614 5610 5605 5601 5596 5592 5588 5584 5579 5575 5571 5566 5561 5556 5551 5546 5541 5536 5532 5528 5524 5520 5516 5514 5511 5510 5508 5508 5507 5508 5509 5511 5513
5621 5617 5614 5610 5607 5603 5599 5596 5592 5588 5585 5581 5577 5573 5569 5564 5560 5555 5550 5545 5539 5533 5528 5524 5520 5516 5511 5508 5504 5502 5501 5500 5499 5499 5499 5500 5501 5503
5608 5605 5602 5599 5596 5593 5591 5588 5585 5582 5579 5575 5572 5568 5564 5559 5555 5549 5544 5539 5533 5527 5522 5517 5513 5509 5505 5500 5497 5495 5493 5492 5491 5491 5491 5492 5493 5494
5597 5594 5593 5590 5588 5586 5585 5583 5581 5578 5575 5572 5568 5565 5560 5556 5550 5545 5539 5533 5528 5523 5517 5512 5507 5502 5499 5495 5491 5489 5487 5486 5485 5485 5485 5485 5485 5486
5588 5587 5585 5584 5583 5582 5581 5579 5577 5575 5572 5569 5566 5562 5557 5552 5547 5541 5535 5529 5524 5518 5513 5508 5503 5498 5494 5491 5487 5484 5482 5481 5480 5480 5479 5479 5480 5480
5583 5582 5581 5580 5580 5579 5578 5577 5575 5573 5570 5567 5563 5559 5555 5550 5545 5539 5533 5527 5521 5516 5510 5505 5500 5496 5492 5488 5485 5482 5480 5478 5477 5476 5475 5475 5475 5475
5579 5579 5579 5579 5578 5578 5577 5576 5574 5572 5569 5566 5562 5558 5554 5549 5544 5538 5533 5527 5521 5515 5510 5504 5500 5495 5491 5487 5483 5480 5478 5476 5474 5473 5473 5472 5472 5472
5578 5579 5579 5578 5578 5577 5577 5575 5573 5571 5569 5566 5562 5558 5554 5549 5544 5539 5533 5528 5522 5517 5511 5506 5501 5496 5491 5487 5483 5480 5477 5474 5473 5471 5471 5470 5470 5470
5579 5579 5579 5579 5579 5578 5577 5575 5574 5572 5569 5566 5563 5559 5554 5550 5545 5540 5535 5529 5524 5519 5514 5508 5503 5498 5493 5489 5485 5481 5477 5474 5472 5471 5470 5470 5469 5470
5581 5581 5581 5580 5580 5579 5578 5577 5575 5573 5570 5567 5564 5560 5556 5551 5546 5542 5537 5532 5527 5522 5516 5511 5506 5501 5496 5491 5487 5483 5479 5476 5474 5472 5471 5471 5471 5471
5583 5583 5583 5583 5582 5581 5580 5579 5577 5575 5572 5569 5565 5562 5557 5553 5549 5544 5540 5535 5530 5525 5520 5515 5510 5505 5500 5495 5491 5487 5483 5480 5477 5476 5474 5474 5473 5474
5586 5586 5586 5585 5585 5584 5583 5581 5579 5577 5574 5571 5568 5564 5560 5556 5552 5547 5543 5538 5533 5529 5524 5519 5514 5509 5505 5500 5496 5491 5487 5484 5482 5480 5479 5478 5478 5478
5590 5590 5589 5589 5588 5587 5586 5584 5582 5580 5577 5574 5571 5567 5563 5559 5555 5551 5546 5541 5537 5533 5528 5524 5519 5514 5509 5505 5501 5497 5494 5491 5488 5486 5485 5484 5484 5484
5594 5593 5593 5592 5592 5591 5589 5587 5585 5583 5580 5577 5574 5571 5567 5563 5559 5554 5550 5545 5541 5537 5532 5528 5523 5519 5515 5512 5508 5504 5500 5498 5495 5493 5492 5492 5492 5492
5598 5597 5597 5596 5595 5594 5593 5591 5589 5587 5584 5581 5577 5574 5570 5566 5562 5558 5554 5549 5545 5541 5537 5533 5529 5525 5521 5517 5514 5511 5508 5505 5503 5502 5501 5500 5500 5500